Location: Unspecified
(0.0000°N, 0.0000°E)
Time: 23:45:39
(UTC+00:00)

Envisat - Pass Details

Date: 28 November 2022
Orbit: 763 x 765 km, 98.2° (Epoch: 02 December)

Event Time Altitude Azimuth Distance (km) Brightness Sun altitude
Exits shadow 02:45:46 11° 82° (E) 2,223 5.8 -41.7°
Maximum altitude 02:47:28 13° 103° (ESE) 2,108 5.8 -41.3°
Drops below altitude 10° 02:49:38 10° 128° (SE) 2,298 6.1 -40.8°
Sets 02:53:18 0° 156° (SSE) 3,228 6.8 -40.0°
